[[{"header":{"parameterUnit":"m.s-1","parameterCategory":1,"la1":30.2991,"la2":30.254,"lo1":-89.0895,"lo2":-89.0444,"dy":0.0017,"dx":0.0017,"nx":28,"ny":28,"refTime":"2023-04-27T21:00:00:Z","depth":0,"parameterNumber":2,"parameterNumberName":"U-component_of_WINDS"},"data":[0,0,0,0,0,0,0,0,0,0,0,0,0,0,0,0,0,0,0,0,0,0,0,0,0,0,0,0,0,0,0,0,0,0,0,0,0,0,0,0,0,0,0,0,0,0,0,0,0,0,0,0,0,0,0,0,0,0,4.3361,4.3362,0,4.3515,4.3517,4.3519,4.348,4.3477,4.3474,4.3471,4.3632,4.3638,4.3645,0,0,0,0,0,0,0,0,0,0,0,0,0,4.3033,4.3039,4.3361,4.3362,4.3364,4.3515,4.3517,4.3519,4.3481,4.3477,4.3474,4.347,4.3629,4.3638,4.3646,0,0,0,0,0,0,0,0,0,0,0,0,0,4.318,4.3041,4.336,4.3363,4.3365,4.3515,4.3517,4.352,4.3482,4.3477,4.3473,4.3468,4.3626,4.3637,4.3647,4.3804,0,0,4.368,4.3684,0,0,0,0,0,0,0,0,4.3172,4.3192,4.3361,4.3363,4.3366,4.3474,4.346,4.3615,4.3483,4.3438,4.3471,4.3466,4.3583,4.3597,4.3636,4.3811,4.3818,4.3681,4.3687,4.3692,4.3695,0,0,0,0,0,0,0,4.3162,4.3186,4.3422,4.3363,4.3366,4.3357,4.3373,4.349,4.3534,4.3441,4.3439,4.3457,4.3583,4.3626,4.3639,4.382,4.368,4.369,4.3696,4.37,4.4131,4.4136,0,0,0,0,0,0,4.315,4.3177,4.3417,4.3426,4.3256,4.3367,4.3385,4.3444,4.3532,4.3541,4.3461,4.3455,4.361,4.3627,4.3645,4.3834,4.3692,4.3701,4.3708,4.4126,4.4133,4.4138,0,0,0,0,0,0,4.3143,4.3171,4.3411,4.3301,4.3331,4.3378,4.3444,4.3449,4.3491,4.3548,4.3555,4.3496,4.3607,4.363,4.3764,4.3838,4.3706,4.3716,4.412,4.4128,4.4135,4.4212,0,0,0,0,0,0,4.3134,4.3169,4.3229,4.3303,4.3337,4.3527,4.3449,4.3456,4.351,4.3503,4.3582,4.3591,4.3605,4.3749,4.3775,4.3851,4.3724,4.4114,4.4124,4.4133,4.4203,4.4222,4.4237,0,0,0,0,0,4.3122,4.3245,4.3232,4.3261,4.3412,4.3532,4.3551,4.3564,4.3516,4.3576,4.3612,4.3589,4.3826,4.3763,4.3792,4.3872,4.4109,4.4121,4.4132,4.4196,4.4218,4.4237,0,0,0,0,0,0,4.3178,4.3254,4.3241,4.3391,4.3455,4.3525,4.3601,4.3587,4.3667,4.3657,4.367,4.3689,4.3826,4.3862,4.379,4.4028,4.3961,4.3979,4.3999,4.4021,4.4037,4.4026,4.3733,0,0,0,0,0,4.3208,4.3298,4.336,4.3486,4.3519,4.3555,4.3607,4.3612,4.3679,4.3706,4.3752,4.3818,4.3907,4.3966,4.4052,4.4208,4.4225,4.4278,4.4295,4.4309,4.4324,4.441,4.4434,4.4176,4.4176,4.4175,0,0,4.3271,4.3323,4.3379,4.3499,4.3549,4.3642,4.3578,4.368,4.3749,4.3721,4.3851,4.3887,4.3962,4.4108,4.4175,4.4143,4.4399,4.4323,4.4334,4.4342,4.4424,4.4448,4.447,4.4183,4.4182,4.4181,0,0,4.3432,4.3481,4.3592,4.3643,4.372,4.3743,4.377,4.3842,4.3865,4.3995,4.3976,4.4059,4.4213,4.4267,4.4315,4.4497,4.4479,4.4525,4.4613,4.4697,4.4717,4.4735,4.48,4.4823,4.454,4.454,4.454,0,4.3501,4.364,4.3651,4.3754,4.3807,4.3786,4.3899,4.3948,4.4049,4.4087,4.4049,4.4242,4.4291,4.4449,4.4494,4.4533,4.4564,4.4516,4.4713,4.4731,4.4748,4.4811,4.4835,4.4545,4.4544,4.4544,4.4543,0,4.372,4.3817,4.3898,4.3995,4.4057,4.4165,4.4192,4.4254,4.4253,4.428,4.4413,4.4471,4.4568,4.4606,4.4606,4.4765,4.4743,4.4709,4.4642,4.4778,4.4837,4.4861,4.4552,4.455,4.4549,4.4548,0,0,4.3922,4.4023,4.4053,4.4097,4.418,4.4255,4.4362,4.4456,4.4509,4.4579,4.4669,4.48,4.4769,4.4823,4.483,4.4903,4.5044,4.486,4.4862,4.4892,4.5222,4.5247,4.5274,4.5032,4.5036,4.504,4.5216,0,4.4091,4.4278,4.4291,4.446,4.455,4.4531,4.4624,4.4685,4.4714,4.4795,4.4826,4.4918,4.4871,4.4904,4.4975,4.5011,4.511,4.4999,4.5116,4.512,4.5098,4.5305,4.5332,4.5495,4.5239,4.5243,4.5246,0,4.4313,4.4389,4.4568,4.4638,4.4676,4.4759,4.4847,4.4924,4.4993,4.5009,4.5069,4.5065,4.5175,4.5104,4.5256,4.518,4.5228,4.5254,4.526,4.5272,4.5191,4.5322,4.5547,4.5571,4.5282,4.5279,4.5277,0,4.4442,4.4589,4.4715,4.4753,4.4838,4.4897,4.4936,4.5,4.5056,4.5133,4.5169,4.5258,4.5306,4.5375,4.5396,4.5342,4.5547,4.5477,4.5563,4.5563,4.5607,4.5604,4.5843,4.5639,4.5638,4.5638,4.5637,0,4.4629,4.4739,4.4774,4.4852,4.4974,4.4988,4.5109,4.5144,4.5202,4.5286,4.5275,4.5354,4.5376,4.546,4.5476,4.5599,4.5622,4.5637,4.564,4.5638,4.5636,4.567,4.566,4.5644,4.5643,4.5642,4.5641,0,4.4793,4.4822,4.4957,4.5027,4.5047,4.5134,4.5194,4.5268,4.5295,4.5402,4.5427,4.547,4.5567,4.5594,4.5711,4.5722,4.5867,4.586,4.5844,4.5844,4.5928,4.592,4.6197,4.6234,4.6006,4.6008,4.601,0,4.4911,4.4995,4.5073,4.5129,4.5169,4.5259,4.5315,4.5333,4.5392,4.5478,4.5542,4.5638,4.5716,4.5873,4.5914,4.6004,4.5998,4.609,4.6012,4.6007,4.6,4.5994,4.6003,4.6104,4.6107,4.6109,4.611,0,4.5117,4.5126,4.5208,4.5296,4.5364,4.5434,4.55,4.5547,4.5573,4.5641,4.574,4.5801,4.592,4.6016,4.6106,4.6146,4.6133,4.6134,4.6159,4.6158,4.6145,4.6153,4.5884,4.6128,4.6126,4.6125,4.6124,4.6123,4.5261,4.5335,4.5402,4.5494,4.5546,4.5608,4.5682,4.5718,4.5801,4.5899,4.5904,4.6012,4.6079,4.62,4.6244,4.6329,4.6302,4.6338,4.6347,4.6355,4.6362,4.6131,4.6346,4.6345,4.6345,4.6345,4.6344,0,4.5466,4.5508,4.5593,4.5686,4.5759,4.574,4.5813,4.5875,4.597,4.6033,4.611,4.6224,4.6317,4.6366,4.6458,4.6517,4.6513,4.654,4.6536,4.6545,4.6381,4.6351,4.6542,4.6542,4.6542,4.6541,4.6541,4.6541,4.5581,4.5705,4.5723,4.5873,4.5914,4.6019,4.6062,4.612,4.6171,4.6299,4.6376,4.6407,4.6465,4.6561,4.6646,4.6657,4.6692,4.6723,4.6731,4.6577,4.6557,4.6538,4.6509,4.673,4.673,4.6888,4.689,4.6891]},{"header":{"parameterUnit":"m.s-1","parameterCategory":1,"la1":30.2991,"la2":30.254,"lo1":-89.0895,"lo2":-89.0444,"dy":0.0017,"dx":0.0017,"nx":28,"ny":28,"refTime":"2023-04-27T21:00:00:Z","depth":0,"parameterNumber":3,"parameterNumberName":"V-component_of_WINDS"},"data":[0,0,0,0,0,0,0,0,0,0,0,0,0,0,0,0,0,0,0,0,0,0,0,0,0,0,0,0,0,0,0,0,0,0,0,0,0,0,0,0,0,0,0,0,0,0,0,0,0,0,0,0,0,0,0,0,0,0,2.2537,2.2537,0,2.26,2.2601,2.2602,2.2594,2.2593,2.2592,2.2591,2.2654,2.2656,2.2659,0,0,0,0,0,0,0,0,0,0,0,0,0,2.2406,2.2409,2.2537,2.2538,2.2538,2.26,2.2601,2.2602,2.2594,2.2593,2.2591,2.259,2.2653,2.2656,2.2659,0,0,0,0,0,0,0,0,0,0,0,0,0,2.2466,2.2409,2.2537,2.2542,2.2543,2.26,2.2601,2.2602,2.2594,2.2593,2.2591,2.259,2.2652,2.2655,2.2659,2.2715,0,0,2.2671,2.2673,0,0,0,0,0,0,0,0,2.2462,2.247,2.254,2.2542,2.2543,2.2588,2.2578,2.264,2.2595,2.2575,2.2591,2.2589,2.2633,2.2638,2.2653,2.2718,2.272,2.2672,2.2674,2.2676,2.2677,0,0,0,0,0,0,0,2.2458,2.2468,2.2562,2.2541,2.2543,2.254,2.2547,2.259,2.2611,2.2576,2.2576,2.2584,2.2633,2.265,2.2655,2.2721,2.2672,2.2675,2.2678,2.2679,2.2834,2.2836,0,0,0,0,0,0,2.2453,2.2464,2.256,2.2564,2.2498,2.2544,2.2551,2.2575,2.2611,2.2615,2.2585,2.2583,2.2644,2.265,2.2657,2.2725,2.2676,2.268,2.2682,2.2833,2.2835,2.2837,0,0,0,0,0,0,2.245,2.2462,2.2557,2.2514,2.2526,2.2548,2.2574,2.2577,2.2593,2.2618,2.2621,2.2598,2.2643,2.2651,2.2701,2.2727,2.2681,2.2685,2.283,2.2833,2.2836,2.286,0,0,0,0,0,0,2.2446,2.2461,2.2482,2.2514,2.2528,2.2601,2.2576,2.2579,2.26,2.2599,2.2631,2.2635,2.2642,2.2695,2.2705,2.2731,2.2688,2.2828,2.2832,2.2835,2.2857,2.2863,2.2869,0,0,0,0,0,2.2442,2.2486,2.2484,2.2495,2.2556,2.2602,2.261,2.2619,2.2603,2.2624,2.264,2.2634,2.2722,2.27,2.2711,2.2739,2.2827,2.2831,2.2835,2.2855,2.2862,2.2869,0,0,0,0,0,0,2.2456,2.2491,2.2488,2.2544,2.257,2.2601,2.2629,2.2626,2.2657,2.2654,2.2662,2.2669,2.2719,2.2734,2.2709,2.2795,2.2772,2.2778,2.2784,2.2791,2.2797,2.2792,2.2691,0,0,0,0,0,2.2466,2.2501,2.2529,2.2576,2.2589,2.2607,2.2627,2.2631,2.2659,2.2669,2.2688,2.2714,2.2748,2.277,2.2802,2.2859,2.2866,2.2884,2.2889,2.2894,2.29,2.2931,2.2939,2.2849,2.2849,2.2849,0,0,2.2486,2.2509,2.2531,2.2579,2.26,2.2636,2.2616,2.2655,2.2681,2.2675,2.2723,2.2738,2.2767,2.2821,2.2845,2.2834,2.2926,2.2899,2.2902,2.2906,2.2936,2.2944,2.2952,2.2852,2.2852,2.2851,0,0,2.2542,2.2563,2.2605,2.2626,2.2658,2.2669,2.2679,2.271,2.272,2.2769,2.2765,2.2796,2.2854,2.2875,2.2893,2.2957,2.2952,2.2967,2.2997,2.3028,2.3035,2.3041,2.3064,2.3072,2.2972,2.2972,2.2972,0,2.2563,2.2618,2.2626,2.2666,2.2687,2.2683,2.2726,2.2746,2.2786,2.2801,2.2788,2.2861,2.288,2.2939,2.2954,2.2969,2.2981,2.2964,2.3033,2.304,2.3046,2.3068,2.3076,2.2974,2.2974,2.2974,2.2973,0,2.2642,2.268,2.271,2.275,2.2775,2.2815,2.2829,2.2853,2.2855,2.2867,2.2917,2.294,2.2977,2.2991,2.2993,2.305,2.3042,2.3031,2.3009,2.3056,2.3077,2.3085,2.2976,2.2976,2.2975,2.2975,0,0,2.271,2.2754,2.2765,2.2784,2.2818,2.2848,2.2887,2.2925,2.2945,2.2973,2.3007,2.3055,2.3046,2.3067,2.3071,2.3097,2.3147,2.3083,2.3084,2.3095,2.3211,2.322,2.323,2.3143,2.3145,2.3146,2.3209,0,2.2769,2.2842,2.285,2.2914,2.2949,2.2946,2.2981,2.3006,2.3018,2.3049,2.3062,2.3097,2.3082,2.3094,2.312,2.3135,2.317,2.3131,2.3175,2.3176,2.3169,2.3241,2.325,2.3308,2.3217,2.3219,2.322,0,2.2849,2.288,2.2948,2.2979,2.2993,2.3025,2.306,2.3089,2.3117,2.3124,2.3148,2.3148,2.3189,2.3164,2.3221,2.3193,2.3212,2.3222,2.3224,2.3229,2.3202,2.3249,2.3327,2.3336,2.3233,2.3232,2.3231,0,2.2892,2.2951,2.2999,2.3015,2.3051,2.3074,2.309,2.3116,2.3138,2.3168,2.3182,2.3216,2.3235,2.326,2.327,2.3251,2.3326,2.3302,2.3333,2.3333,2.335,2.3349,2.3433,2.336,2.336,2.3359,2.3359,0,2.2959,2.3001,2.3019,2.3049,2.3096,2.3104,2.315,2.3165,2.3188,2.322,2.3219,2.3249,2.3259,2.3291,2.3298,2.3344,2.3352,2.3359,2.336,2.336,2.3359,2.3372,2.3369,2.3362,2.3361,2.3361,2.336,0,2.3015,2.303,2.3082,2.3113,2.3121,2.3154,2.318,2.3208,2.322,2.3261,2.3271,2.3289,2.3326,2.3338,2.3382,2.3387,2.3441,2.3438,2.3432,2.3432,2.3463,2.346,2.356,2.3573,2.3491,2.3491,2.3492,0,2.3057,2.309,2.3124,2.3146,2.3163,2.3198,2.322,2.323,2.3253,2.3287,2.3312,2.3349,2.3379,2.3438,2.3455,2.3489,2.3488,2.352,2.3493,2.3491,2.3489,2.3487,2.3491,2.3525,2.3526,2.3527,2.3528,0,2.3131,2.3136,2.3169,2.3205,2.3232,2.326,2.3287,2.3305,2.3319,2.3345,2.3383,2.3407,2.3452,2.3489,2.3524,2.3539,2.3536,2.3536,2.3545,2.3545,2.354,2.3544,2.3447,2.3534,2.3533,2.3533,2.3532,2.3532,2.3182,2.321,2.3239,2.3276,2.3297,2.3323,2.3352,2.3367,2.34,2.3439,2.3442,2.3483,2.351,2.3556,2.3573,2.3605,2.3596,2.3609,2.3613,2.3616,2.3619,2.3535,2.3612,2.3611,2.3611,2.3611,2.3611,0,2.3256,2.3274,2.3308,2.3346,2.3375,2.337,2.34,2.3424,2.3461,2.3487,2.3516,2.3561,2.3596,2.3616,2.3651,2.3673,2.3672,2.3682,2.3681,2.3685,2.3625,2.3614,2.3682,2.3682,2.3682,2.3682,2.3682,2.3682,2.3297,2.3346,2.3355,2.3414,2.3431,2.3473,2.3491,2.3514,2.3534,2.3584,2.3614,2.3627,2.365,2.3687,2.3719,2.3724,2.3737,2.3748,2.3752,2.3696,2.3689,2.3682,2.3672,2.3751,2.3751,2.3809,2.381,2.381]}]]